{"data":{"norad_id":67100,"epoch":"2026-09-20T22:30:18.386784Z","epoch_age_seconds":40956,"freshness":"FRESH","line1":"1 67100U 25298AB  26263.93771281  .00000129  00000+0  18645-4 0  9996","line2":"2 67100  69.9997 242.1582 0007270 261.3853  98.6482 14.98329700 42469","mean_motion":14.983297,"eccentricity":0.000727,"inclination_deg":69.9997,"raan_deg":242.1582,"arg_perigee_deg":261.3853,"mean_anomaly_deg":98.6482,"bstar":1.8645e-5,"rev_number":4246,"period_min":96.107018368521,"perigee_km":567.00402776365,"apogee_km":577.109609576,"semimajor_km":6950.1938186698,"source":"CELESTRAK","updated_at":"2026-09-21T09:00:36.102876Z"}}